{"data":{"norad_id":47879,"epoch":"2026-05-24T17:38:00.660768Z","epoch_age_seconds":108180,"freshness":"FRESH","line1":"1 47879U 21021V   26144.73472987  .00062177  00000+0  10819-2 0  9998","line2":"2 47879  53.1553 279.1563 0002477 256.3974 103.6760 15.50216601288006","mean_motion":15.50216601,"eccentricity":0.0002477,"inclination_deg":53.1553,"raan_deg":279.1563,"arg_perigee_deg":256.3974,"mean_anomaly_deg":103.676,"bstar":0.0010819,"rev_number":28800,"period_min":92.890245083887,"perigee_km":414.41019098971,"apogee_km":417.77605259204,"semimajor_km":6794.2301217909,"source":"CELESTRAK","updated_at":"2026-05-25T13:38:16.610764Z"}}